Regional Weather Roundup
Issued by NWS

Home | Current Version | Previous Version | Graphics & Text | Print | Product List | Glossary On
Versions: 1 2 3 4 5 6 7 8 9 10 11 12 13 14 15 16 17 18 19 20 21 22 23 24 25 26 27 28 29 30 31 32 33 34 35 36 37 38 39 40 41 42 43 44 45 46 47 48 49 50
430
ASUS45 KBOU 051507
RWRCO

WEATHER ROUNDUP FOR COLORADO
NATIONAL WEATHER SERVICE DENVER/BOULDER CO
800 AM MST FRI FEB 05 2016

NOTE: "FAIR" INDICATES FEW OR NO CLOUDS BELOW 12000 FEET WITH NO
SIGNIFICANT WEATHER AND/OR OBSTRUCTIONS TO VISIBILITY.

COZ001>005-013-030-031-051600-
...NORTHWEST COLORADO...

CITY           SKY/WX    TMP DP  RH WIND       PRES   REMARKS
CRAIG          LGT SNOW  11   7  84 SE3       30.44R FOG
HAYDEN         CLOUDY    10   7  85 CALM      30.41R
MEEKER         LGT SNOW  12   9  87 CALM      30.44R VSB 3/4
MOUNT WERNER   NOT AVBL
STEAMBOAT SPGS CLOUDY     9   6  87 CALM      30.40R
WALDEN         CLOUDY     0  -6  78 SE9       30.31R WCI -16
$$

COZ006>008-011-051600-
...WEST CENTRAL VALLEYS...

CITY           SKY/WX    TMP DP  RH WIND       PRES   REMARKS
GRAND JUNCTION CLOUDY    17  15  92 CALM      30.55R FOG
MONTROSE       CLOUDY     6   2  83 S5        30.54R WCI  -3
EAGLE          PTCLDY    -2  -8  78 CALM      30.48R
RIFLE          LGT SNOW  11   8  88 W8        30.51R FOG     WCI  -1
DELTA          LGT SNOW  13   9  86 CALM      30.55R
NUCLA          FLURRIES  12   9  85 E5        30.53R WCI   4
$$

COZ017>023-064>068-051600-
...SOUTHWEST COLORADO...

CITY           SKY/WX    TMP DP  RH WIND       PRES   REMARKS
DURANGO        CLOUDY    -2  -6  83 CALM      30.36R
CORTEZ         CLOUDY     2  -3  80 E7        30.43R WCI -11
PAGOSA SPRINGS CLOUDY    -4  -9  77 CALM      30.31R
TELLURIDE      CLOUDY    11   6  80 SW9       30.32R WCI  -2
WOLF CREEK PAS CLOUDY     0  -8  71 NE18      30.17R WCI -22
$$

COZ009-010-012-014-032>034-037-058>063-051600-
...CENTRAL COLORADO...

CITY           SKY/WX    TMP DP  RH WIND       PRES   REMARKS
ASPEN          FLURRIES   6   3  87 SE3       30.36R
BUENA VISTA    CLOUDY    16   2  54 NW23G31   30.28R WCI  -2
COPPER MTN     CLOUDY     3  -6  66 W13       30.17R WCI -14
BERTHOUD PASS  CLOUDY    -4 -15  59 N10G17    30.13R WCI -21
COTTONWOOD PAS CLOUDY    12  -2  52 SE6       30.22R WCI   3
GUNNISON       CLOUDY   -20 N/A N/A CALM      30.43R
KREMMLING      CLOUDY    -8 -13  77 CALM      30.39R
LEADVILLE      CLOUDY     0  -5  79 N5        30.24R WCI -10
MONARCH PASS     N/A      1  -4  78 MISG      30.25R
SALIDA         CLOUDY    13   0  57 W13       30.39R WCI  -2
SUNLIGHT       SNOW     N/A N/A N/A CALM        N/A  VSB 1/2
WILKERSON PASS CLOUDY     5  -4  66 N10G17    30.17R WCI -10
$$

COZ069>075-051600-
...SAN LUIS VALLEY/SANGRE DE CRISTO MOUNTAINS...

CITY           SKY/WX    TMP DP  RH WIND       PRES   REMARKS
ALAMOSA        CLOUDY    -8 -13  78 S7        30.29R WCI -23
LA VETA PASS   CLOUDY     9   1  72 MISG      30.17R HAZE
SAGUACHE       CLOUDY    12   1  62 NW9       30.29S WCI   0
$$

COZ035-036-038>040-051600-
...NORTHERN COLORADO FRONT RANGE...

CITY           SKY/WX    TMP DP  RH WIND       PRES   REMARKS
DENVER INTL AP CLOUDY    21   8  57 W3        30.28R
DMNS CITY PARK   N/A     26  15  63 S5        30.30S WCI  21
AURORA         PTCLDY    23   8  53 W5        30.29R WCI  17
FRONT RANGE AP MOCLDY    21   9  58 MISG      30.29R
ERIE MUNI ARPT CLEAR     16  10  77 CALM      30.30S
BOULDER MUN AP CLEAR     28   5  37 SW3       30.29S
CENTENNIAL     CLOUDY    23   7  50 NW3       30.28R
BROOMFIELD     MOCLDY    27   3  36 W14       30.28R WCI  15
FORT COLLINS   CLOUDY    21   3  45 CALM      30.29S
LONGMONT       CLOUDY    19   6  57 W3        30.31S
$$

COZ041-046-047-076>085-087-088-051600-
...PIKES PEAK/PALMER DIVIDE AND SOUTHERN FOOTHILLS...

CITY           SKY/WX    TMP DP  RH WIND       PRES   REMARKS
COLO. SPRINGS  CLOUDY    21  10  62 N8        30.28R WCI  11
A. F. ACADEMY  CLOUDY    10   5  81 N9        30.25R WCI  -3
SCHRIEVER AFB  FAIR      22  10  59 NW13      30.27R WCI  10
ELLICOTT       NOT AVBL
FALCON         CLOUDY    16   6  65 NW9       30.26R WCI   4
FORT CARSON    MOCLDY    21  13  71 CALM      30.27R
LIMON          PTCLDY    21  14  74 N14       30.27R WCI   8
MONUMENT HILL  CLOUDY    14   5  67 NW9       30.26R WCI   2
TRINIDAD       LGT SNOW  24  21  88 N5        30.27R VSB 1   WCI  18
$$

COZ042>045-048>051-090-091-051600-
...NORTHEAST COLORADO...

CITY           SKY/WX    TMP DP  RH WIND       PRES   REMARKS
GREELEY ARPT     N/A     10   9  92 CALM      30.31R
AKRON          CLOUDY    19  14  81 W13       30.27R WCI   6
BURLINGTON     PTSUNNY   24  22  91 W6        30.28R WCI  17
WRAY           SUNNY     23  17  77 W6        30.28R WCI  15
STERLING       CLOUDY    25  14  63 NW15      30.27R WCI  12
HOLYOKE        SUNNY     27  16  63 W10       30.27R WCI  17
FORT MORGAN    CLOUDY    17  11  77 W7        30.30R WCI   7
$$

COZ086-089-092>099-051600-
...SOUTHEAST COLORADO...

CITY           SKY/WX    TMP DP  RH WIND       PRES   REMARKS
PUEBLO         CLOUDY    27  23  85 W7        30.31R WCI  19
LA JUNTA       LGT SNOW  29  27  92 MISG      30.31R FOG
LAMAR          CLOUDY    32  27  81 N13       30.29R WCI  22
SPRINGFIELD      N/A     22  12  65 N17       30.24R WCI   8
$$




USA.gov is the U.S. government's official web portal to all federal, state and local government web resources and services.